RYR5KY LIRZ-EBCI

Flight info

Callsign RYR5KY
Flight time 1h 48m
Altitude 38000
Route LAKOX5N LAKOX DCT GAVRA DCT BAGNO DCT SUKOM DCT KOPER DCT VADIK DCT DIKEM DCT UNIMI L12 MOGTI DCT KPT L608 KUNOD/N0388F280 DCT IDOVI/N0366F240 Z104 ROBON/N0359F220 Z104 GESLO N852 LNO LNO7A
Aircraft B738/M-L/S

Departure

Time 2026-04-26 14:04
Airport Perugia San Francesco d'Assisi – Umbria International Airport (LIRZ)

Arrival

Time 2026-04-26 15:52
Airport Brussels South Charleroi Airport (EBCI)
Time Latitude Longitude Altitude Speed Heading
2026-04-26 13:47 43.09465 12.50391 668 ft 0 kts 289°
2026-04-26 14:00 43.09568 12.50544 667 ft 16 kts 65°
2026-04-26 14:00 43.09620 12.50699 668 ft 20 kts 65°
2026-04-26 14:00 43.09661 12.50825 668 ft 23 kts 65°
2026-04-26 14:01 43.09757 12.51115 667 ft 28 kts 65°
2026-04-26 14:01 43.09822 12.51324 666 ft 19 kts 82°
2026-04-26 14:01 43.09724 12.51370 665 ft 24 kts 194°
2026-04-26 14:01 43.09526 12.51300 666 ft 34 kts 194°
2026-04-26 14:02 43.09301 12.51221 669 ft 33 kts 194°
2026-04-26 14:02 43.09076 12.51143 669 ft 33 kts 194°
2026-04-26 14:02 43.08929 12.51094 669 ft 14 kts 184°
2026-04-26 14:02 43.08866 12.51063 668 ft 7 kts 281°
2026-04-26 14:03 43.08895 12.51073 666 ft 7 kts 36°
2026-04-26 14:03 43.09061 12.51137 668 ft 58 kts 14°
2026-04-26 14:03 43.09719 12.51367 666 ft 132 kts 14°
2026-04-26 14:03 43.10790 12.51753 827 ft 176 kts 13°
2026-04-26 14:04 43.11966 12.52178 1666 ft 177 kts 12°
2026-04-26 14:04 43.13155 12.52572 2586 ft 177 kts 10°
2026-04-26 14:04 43.14396 12.52571 3286 ft 184 kts 336°
2026-04-26 14:04 43.15328 12.51471 4178 ft 182 kts 297°
2026-04-26 14:05 43.15551 12.49645 4474 ft 209 kts 257°
2026-04-26 14:05 43.15074 12.47730 5053 ft 216 kts 250°
2026-04-26 14:05 43.14539 12.45780 5644 ft 224 kts 250°
2026-04-26 14:05 43.13998 12.43720 6277 ft 233 kts 251°
2026-04-26 14:06 43.13465 12.41620 7057 ft 235 kts 251°
2026-04-26 14:06 43.12935 12.39492 7809 ft 238 kts 252°
2026-04-26 14:06 43.12407 12.37329 8562 ft 241 kts 252°
2026-04-26 14:06 43.11877 12.35136 9333 ft 244 kts 253°
2026-04-26 14:07 43.11704 12.32834 10008 ft 247 kts 284°
2026-04-26 14:07 43.12328 12.30656 10684 ft 248 kts 290°
2026-04-26 14:07 43.12632 12.28315 11330 ft 252 kts 277°
2026-04-26 14:07 43.12821 12.25915 12018 ft 256 kts 278°
2026-04-26 14:08 43.13190 12.23431 12286 ft 279 kts 285°
2026-04-26 14:08 43.13708 12.20753 12504 ft 303 kts 285°
2026-04-26 14:08 43.14260 12.17887 12971 ft 317 kts 285°
2026-04-26 14:08 43.14813 12.14943 13699 ft 321 kts 286°
2026-04-26 14:09 43.15750 12.12178 14376 ft 322 kts 309°
2026-04-26 14:09 43.17404 12.10156 15123 ft 319 kts 331°
2026-04-26 14:09 43.19443 12.08986 15886 ft 318 kts 341°
2026-04-26 14:09 43.21554 12.08019 16548 ft 322 kts 343°
2026-04-26 14:10 43.23702 12.07078 17210 ft 325 kts 343°
2026-04-26 14:10 43.25863 12.06135 17956 ft 327 kts 342°
2026-04-26 14:10 43.28038 12.05176 18620 ft 330 kts 342°
2026-04-26 14:10 43.30229 12.04199 19196 ft 333 kts 342°
2026-04-26 14:11 43.34670 12.02195 20366 ft 338 kts 342°
2026-04-26 14:11 43.36913 12.01175 20944 ft 341 kts 341°
2026-04-26 14:11 43.39174 12.00146 21530 ft 344 kts 341°
2026-04-26 14:12 43.41452 11.99106 22136 ft 346 kts 341°
2026-04-26 14:12 43.43745 11.98058 22718 ft 349 kts 341°
2026-04-26 14:12 43.46060 11.96999 23267 ft 352 kts 341°
2026-04-26 14:12 43.48388 11.95932 23808 ft 354 kts 341°
2026-04-26 14:13 43.53100 11.93771 24751 ft 359 kts 341°
2026-04-26 14:13 43.55481 11.92678 25189 ft 362 kts 341°
2026-04-26 14:13 43.57880 11.91575 25620 ft 365 kts 340°
2026-04-26 14:14 43.60296 11.90464 26068 ft 367 kts 340°
2026-04-26 14:14 43.62729 11.89344 26495 ft 370 kts 340°
2026-04-26 14:14 43.65184 11.88213 26922 ft 373 kts 340°
2026-04-26 14:14 43.67653 11.87075 27340 ft 375 kts 340°
2026-04-26 14:15 43.70139 11.85927 27772 ft 378 kts 340°
2026-04-26 14:15 43.72641 11.84772 28183 ft 381 kts 340°
2026-04-26 14:15 43.75158 11.83609 28600 ft 383 kts 339°
2026-04-26 14:15 43.77710 11.82490 28986 ft 387 kts 343°
2026-04-26 14:16 43.80370 11.81826 29320 ft 391 kts 350°
2026-04-26 14:16 43.83081 11.81340 29710 ft 394 kts 350°
2026-04-26 14:16 43.85801 11.80849 30073 ft 396 kts 349°
2026-04-26 14:16 43.88543 11.80327 30349 ft 399 kts 349°
2026-04-26 14:17 43.91299 11.79786 30658 ft 401 kts 349°
2026-04-26 14:17 43.94061 11.79238 31007 ft 402 kts 349°
2026-04-26 14:17 43.96834 11.78686 31313 ft 404 kts 349°
2026-04-26 14:17 43.99664 11.78122 31591 ft 406 kts 349°
2026-04-26 14:18 44.02435 11.77569 31852 ft 409 kts 349°
2026-04-26 14:18 44.05258 11.77007 32123 ft 411 kts 349°
2026-04-26 14:18 44.08094 11.76442 32416 ft 412 kts 349°
2026-04-26 14:18 44.10974 11.75868 32696 ft 414 kts 349°
2026-04-26 14:19 44.13837 11.75297 32956 ft 416 kts 349°
2026-04-26 14:19 44.16707 11.74724 33195 ft 418 kts 349°
2026-04-26 14:19 44.19589 11.74148 33455 ft 420 kts 349°
2026-04-26 14:19 44.22485 11.73569 33703 ft 421 kts 349°
2026-04-26 14:20 44.25394 11.72986 33945 ft 423 kts 349°
2026-04-26 14:20 44.28311 11.72401 34207 ft 424 kts 349°
2026-04-26 14:20 44.31224 11.71817 34497 ft 422 kts 349°
2026-04-26 14:20 44.34130 11.71234 34790 ft 422 kts 349°
2026-04-26 14:21 44.37037 11.70649 34998 ft 422 kts 349°
2026-04-26 14:21 44.39949 11.70063 35226 ft 423 kts 349°
2026-04-26 14:21 44.42864 11.69475 35483 ft 423 kts 349°
2026-04-26 14:21 44.45771 11.68889 35742 ft 422 kts 349°
2026-04-26 14:22 44.48679 11.68302 35962 ft 422 kts 349°
2026-04-26 14:22 44.51587 11.67714 36180 ft 422 kts 349°
2026-04-26 14:22 44.54497 11.67126 36420 ft 422 kts 349°
2026-04-26 14:22 44.57421 11.66725 36648 ft 423 kts 354°
2026-04-26 14:23 44.60365 11.66551 36853 ft 424 kts 356°
2026-04-26 14:23 44.63315 11.66454 37061 ft 424 kts 356°
2026-04-26 14:23 44.66268 11.66371 37279 ft 424 kts 356°
2026-04-26 14:23 44.69209 11.66277 37504 ft 423 kts 356°
2026-04-26 14:24 44.72152 11.66167 37695 ft 423 kts 356°
2026-04-26 14:24 44.75095 11.66042 37885 ft 423 kts 355°
2026-04-26 14:24 44.78041 11.65909 38033 ft 424 kts 355°
2026-04-26 14:25 44.83977 11.65628 38086 ft 430 kts 355°
2026-04-26 14:25 44.89994 11.65341 38081 ft 436 kts 355°
2026-04-26 14:26 44.96100 11.65052 38075 ft 442 kts 355°
2026-04-26 14:26 45.02271 11.64761 38073 ft 446 kts 355°
2026-04-26 14:27 45.08487 11.64467 38079 ft 448 kts 355°
2026-04-26 14:27 45.14703 11.64142 38064 ft 443 kts 353°
2026-04-26 14:28 45.20694 11.62476 38081 ft 433 kts 343°
2026-04-26 14:28 45.26531 11.60343 38080 ft 433 kts 343°
2026-04-26 14:29 45.32372 11.58244 38076 ft 433 kts 343°
2026-04-26 14:29 45.38222 11.56189 38080 ft 433 kts 343°
2026-04-26 14:30 45.44078 11.54142 38075 ft 434 kts 344°
2026-04-26 14:30 45.49943 11.52088 38084 ft 434 kts 343°
2026-04-26 14:31 45.54824 11.50372 38086 ft 435 kts 343°
2026-04-26 14:31 45.60708 11.48301 38095 ft 436 kts 343°
2026-04-26 14:32 45.66649 11.46491 38097 ft 438 kts 349°
2026-04-26 14:32 45.72724 11.45447 38104 ft 440 kts 351°
2026-04-26 14:33 45.78809 11.44461 38116 ft 440 kts 351°
2026-04-26 14:33 45.84939 11.43390 38115 ft 441 kts 350°
2026-04-26 14:34 45.91026 11.42290 38107 ft 441 kts 350°
2026-04-26 14:34 45.97106 11.41188 38113 ft 441 kts 350°
2026-04-26 14:35 46.03190 11.40083 38111 ft 440 kts 349°
2026-04-26 14:35 46.09105 11.38034 38144 ft 436 kts 342°
2026-04-26 14:36 46.14930 11.35615 38161 ft 435 kts 341°
2026-04-26 14:36 46.20754 11.33214 38188 ft 436 kts 341°
2026-04-26 14:37 46.26594 11.30840 38208 ft 436 kts 342°
2026-04-26 14:37 46.32426 11.28481 38216 ft 435 kts 342°
2026-04-26 14:38 46.38259 11.26116 38014 ft 435 kts 341°
2026-04-26 14:38 46.44076 11.23752 38019 ft 434 kts 341°
2026-04-26 14:39 46.49864 11.21395 38020 ft 429 kts 341°
2026-04-26 14:39 46.55604 11.19051 38032 ft 428 kts 341°
2026-04-26 14:40 46.61342 11.16702 38057 ft 429 kts 341°
2026-04-26 14:40 46.67104 11.14339 38084 ft 431 kts 341°
2026-04-26 14:41 46.72884 11.11963 38087 ft 433 kts 341°
2026-04-26 14:41 46.78690 11.09571 38129 ft 434 kts 341°
2026-04-26 14:42 46.84522 11.07164 38128 ft 436 kts 341°
2026-04-26 14:42 46.90130 11.03911 38159 ft 434 kts 332°
2026-04-26 14:43 46.95603 11.00132 38139 ft 435 kts 333°
2026-04-26 14:43 47.01126 10.96506 38147 ft 435 kts 333°
2026-04-26 14:44 47.06646 10.92929 38146 ft 432 kts 333°
2026-04-26 14:44 47.12136 10.89345 38139 ft 431 kts 333°
2026-04-26 14:45 47.17640 10.85730 38165 ft 430 kts 333°
2026-04-26 14:45 47.23109 10.82128 38169 ft 431 kts 333°
2026-04-26 14:46 47.28575 10.78521 38159 ft 431 kts 333°
2026-04-26 14:46 47.34047 10.74901 38165 ft 432 kts 333°
2026-04-26 14:47 47.39485 10.71140 38169 ft 431 kts 326°
2026-04-26 14:47 47.44432 10.66196 38184 ft 429 kts 322°
2026-04-26 14:48 47.49304 10.61099 38197 ft 429 kts 322°
2026-04-26 14:48 47.54195 10.56031 38195 ft 429 kts 323°
2026-04-26 14:49 47.59094 10.50986 38185 ft 429 kts 323°
2026-04-26 14:49 47.63986 10.45947 38203 ft 427 kts 323°
2026-04-26 14:50 47.68856 10.40915 38200 ft 426 kts 323°
2026-04-26 14:50 47.73713 10.35884 38201 ft 425 kts 322°
2026-04-26 14:51 47.78392 10.30552 38201 ft 423 kts 318°
2026-04-26 14:51 47.82908 10.24963 38209 ft 421 kts 318°
2026-04-26 14:52 47.87410 10.19385 38217 ft 421 kts 318°
2026-04-26 14:52 47.91927 10.13830 38219 ft 421 kts 318°
2026-04-26 14:53 47.96448 10.08281 38211 ft 421 kts 318°
2026-04-26 14:53 48.00969 10.02725 38213 ft 421 kts 318°
2026-04-26 14:54 48.05493 9.97151 38214 ft 421 kts 318°
2026-04-26 14:54 48.10019 9.91561 38211 ft 422 kts 318°
2026-04-26 14:55 48.14547 9.85954 38216 ft 423 kts 318°
2026-04-26 14:55 48.19086 9.80320 38210 ft 424 kts 318°
2026-04-26 14:56 48.23655 9.74635 38204 ft 424 kts 318°
2026-04-26 14:56 48.28199 9.68968 38206 ft 425 kts 318°
2026-04-26 14:57 48.32742 9.63290 38211 ft 425 kts 318°
2026-04-26 14:57 48.37270 9.57570 38203 ft 424 kts 318°
2026-04-26 14:58 48.41764 9.51814 38199 ft 424 kts 317°
2026-04-26 14:58 48.46254 9.46045 38200 ft 424 kts 317°
2026-04-26 14:59 48.50746 9.40268 38204 ft 424 kts 318°
2026-04-26 14:59 48.55233 9.34486 38206 ft 424 kts 317°
2026-04-26 15:00 48.59712 9.28704 38209 ft 423 kts 318°
2026-04-26 15:00 48.64183 9.22917 38208 ft 423 kts 317°
2026-04-26 15:01 48.68644 9.17128 38213 ft 422 kts 317°
2026-04-26 15:01 48.73095 9.11339 38220 ft 422 kts 317°
2026-04-26 15:02 48.77547 9.05534 38205 ft 422 kts 317°
2026-04-26 15:02 48.81996 8.99720 38214 ft 422 kts 317°
2026-04-26 15:03 48.86441 8.93895 38207 ft 422 kts 317°
2026-04-26 15:03 48.90881 8.88064 38207 ft 422 kts 317°
2026-04-26 15:04 48.95320 8.82219 38207 ft 422 kts 317°
2026-04-26 15:04 48.99762 8.76356 38210 ft 423 kts 317°
2026-04-26 15:05 49.03482 8.71436 38212 ft 423 kts 317°
2026-04-26 15:05 49.07923 8.65548 38216 ft 423 kts 317°
2026-04-26 15:06 49.12367 8.59642 38221 ft 423 kts 317°
2026-04-26 15:06 49.16809 8.53724 38218 ft 424 kts 317°
2026-04-26 15:07 49.23466 8.44827 38233 ft 424 kts 317°
2026-04-26 15:07 49.27900 8.38881 38235 ft 424 kts 317°
2026-04-26 15:08 49.32336 8.32920 38235 ft 424 kts 317°
2026-04-26 15:08 49.36763 8.26955 38241 ft 424 kts 317°
2026-04-26 15:09 49.41187 8.20980 38236 ft 423 kts 317°
2026-04-26 15:09 49.45605 8.14997 38236 ft 423 kts 317°
2026-04-26 15:10 49.49300 8.09982 38236 ft 423 kts 317°
2026-04-26 15:10 49.54422 8.03013 38232 ft 423 kts 317°
2026-04-26 15:11 49.58820 7.97013 38231 ft 422 kts 317°
2026-04-26 15:11 49.63215 7.91002 38231 ft 422 kts 317°
2026-04-26 15:12 49.67602 7.84986 38236 ft 422 kts 317°
2026-04-26 15:12 49.71983 7.78964 38236 ft 421 kts 317°
2026-04-26 15:13 49.76356 7.72938 38240 ft 421 kts 317°
2026-04-26 15:13 49.80752 7.66865 38242 ft 420 kts 317°
2026-04-26 15:14 49.85108 7.60831 38245 ft 420 kts 317°
2026-04-26 15:14 49.89457 7.54791 38242 ft 419 kts 317°
2026-04-26 15:15 49.93798 7.48748 38242 ft 419 kts 317°
2026-04-26 15:15 49.98133 7.42696 38240 ft 419 kts 317°
2026-04-26 15:16 50.02465 7.36637 38244 ft 418 kts 317°
2026-04-26 15:16 50.06411 7.30054 38245 ft 417 kts 300°
2026-04-26 15:17 50.07627 7.25968 38229 ft 418 kts 289°
2026-04-26 15:17 50.08121 7.23075 38240 ft 418 kts 281°
2026-04-26 15:17 50.08607 7.12504 38265 ft 420 kts 274°
2026-04-26 15:18 50.08902 7.03428 38262 ft 420 kts 275°
2026-04-26 15:18 50.09265 6.94355 38263 ft 420 kts 276°
2026-04-26 15:19 50.09531 6.85259 38247 ft 422 kts 271°
2026-04-26 15:19 50.09309 6.76131 38220 ft 422 kts 270°
2026-04-26 15:20 50.09093 6.66985 38210 ft 422 kts 270°
2026-04-26 15:20 50.08905 6.57841 38213 ft 423 kts 270°
2026-04-26 15:21 50.08709 6.48694 38207 ft 423 kts 270°
2026-04-26 15:21 50.08502 6.39552 38210 ft 423 kts 270°
2026-04-26 15:22 50.08394 6.34956 37902 ft 428 kts 270°
2026-04-26 15:22 50.08283 6.30316 37402 ft 428 kts 271°
2026-04-26 15:22 50.08170 6.25706 36844 ft 426 kts 271°
2026-04-26 15:22 50.08055 6.21104 36293 ft 424 kts 271°
2026-04-26 15:23 50.07942 6.16552 35969 ft 418 kts 271°
2026-04-26 15:23 50.07831 6.11988 35517 ft 415 kts 271°
2026-04-26 15:23 50.08056 6.07584 35123 ft 403 kts 289°
2026-04-26 15:23 50.09172 6.03665 34784 ft 393 kts 305°
2026-04-26 15:24 50.10881 6.00393 34390 ft 387 kts 316°
2026-04-26 15:24 50.12959 5.97771 33947 ft 384 kts 329°
2026-04-26 15:24 50.15367 5.95990 33538 ft 381 kts 337°
2026-04-26 15:24 50.17841 5.94542 33124 ft 378 kts 339°
2026-04-26 15:25 50.20312 5.93172 32747 ft 375 kts 339°
2026-04-26 15:25 50.21935 5.92278 32480 ft 373 kts 339°
2026-04-26 15:25 50.25185 5.90466 31958 ft 369 kts 338°
2026-04-26 15:25 50.27591 5.89101 31583 ft 366 kts 338°
2026-04-26 15:26 50.29974 5.87734 31214 ft 364 kts 338°
2026-04-26 15:26 50.32340 5.86367 30836 ft 361 kts 338°
2026-04-26 15:26 50.34688 5.85005 30473 ft 359 kts 338°
2026-04-26 15:26 50.37024 5.83646 30070 ft 357 kts 338°
2026-04-26 15:27 50.39342 5.82295 29673 ft 354 kts 338°
2026-04-26 15:27 50.41640 5.80955 29275 ft 351 kts 338°
2026-04-26 15:27 50.43914 5.79628 28905 ft 347 kts 338°
2026-04-26 15:27 50.46172 5.78308 28523 ft 344 kts 338°
2026-04-26 15:28 50.48407 5.77000 28147 ft 342 kts 338°
2026-04-26 15:28 50.50630 5.75698 27772 ft 339 kts 338°
2026-04-26 15:28 50.52834 5.74407 27398 ft 337 kts 338°
2026-04-26 15:28 50.55024 5.73122 27039 ft 335 kts 338°
2026-04-26 15:29 50.57199 5.71822 26671 ft 334 kts 333°
2026-04-26 15:29 50.59133 5.69868 26306 ft 330 kts 316°
2026-04-26 15:29 50.62137 5.64320 25632 ft 342 kts 308°
2026-04-26 15:30 50.65108 5.58340 24861 ft 346 kts 308°
2026-04-26 15:30 50.66593 5.55367 24494 ft 344 kts 308°
2026-04-26 15:30 50.68078 5.52408 24114 ft 343 kts 308°
2026-04-26 15:31 50.69559 5.49469 23735 ft 341 kts 308°
2026-04-26 15:31 50.72503 5.43638 22909 ft 337 kts 308°
2026-04-26 15:31 50.73959 5.40754 22557 ft 334 kts 308°
2026-04-26 15:32 50.75888 5.36929 22058 ft 332 kts 308°
2026-04-26 15:32 50.78262 5.32215 21463 ft 328 kts 308°
2026-04-26 15:32 50.79678 5.29399 21110 ft 326 kts 308°
2026-04-26 15:33 50.81083 5.26601 20759 ft 324 kts 308°
2026-04-26 15:33 50.82480 5.23819 20415 ft 322 kts 308°
2026-04-26 15:33 50.83869 5.21049 20066 ft 321 kts 308°
2026-04-26 15:33 50.85251 5.18289 19730 ft 319 kts 308°
2026-04-26 15:34 50.86622 5.15533 19379 ft 318 kts 306°
2026-04-26 15:34 50.87612 5.12414 19026 ft 318 kts 287°
2026-04-26 15:34 50.87956 5.08964 18716 ft 318 kts 277°
2026-04-26 15:34 50.88116 5.05477 18342 ft 317 kts 275°
2026-04-26 15:35 50.88246 5.01993 17964 ft 317 kts 275°
2026-04-26 15:35 50.88378 4.98472 17604 ft 315 kts 275°
2026-04-26 15:35 50.88512 4.95021 17252 ft 313 kts 275°
2026-04-26 15:35 50.88651 4.91631 16921 ft 311 kts 275°
2026-04-26 15:36 50.88795 4.88176 16582 ft 310 kts 275°
2026-04-26 15:36 50.88940 4.84777 16250 ft 308 kts 275°
2026-04-26 15:36 50.89035 4.82539 16027 ft 307 kts 275°
2026-04-26 15:36 50.89178 4.79169 15700 ft 306 kts 275°
2026-04-26 15:37 50.89321 4.75807 15370 ft 305 kts 275°
2026-04-26 15:37 50.89463 4.72463 15027 ft 304 kts 275°
2026-04-26 15:37 50.89603 4.69124 14720 ft 303 kts 275°
2026-04-26 15:37 50.89743 4.65797 14393 ft 302 kts 275°
2026-04-26 15:38 50.89880 4.62476 14059 ft 302 kts 275°
2026-04-26 15:38 50.90016 4.59162 13693 ft 301 kts 275°
2026-04-26 15:38 50.89942 4.55853 13318 ft 302 kts 257°
2026-04-26 15:38 50.89070 4.52848 13043 ft 301 kts 236°
2026-04-26 15:39 50.87587 4.50525 12744 ft 301 kts 220°
2026-04-26 15:39 50.85923 4.48529 12424 ft 299 kts 218°
2026-04-26 15:39 50.84248 4.46586 12097 ft 298 kts 218°
2026-04-26 15:39 50.83118 4.45277 11877 ft 297 kts 218°
2026-04-26 15:40 50.80920 4.42712 11454 ft 296 kts 218°
2026-04-26 15:40 50.79271 4.40773 11135 ft 295 kts 218°
2026-04-26 15:40 50.77610 4.38813 10806 ft 294 kts 218°
2026-04-26 15:40 50.75999 4.36908 10569 ft 290 kts 218°
2026-04-26 15:41 50.74386 4.35001 10435 ft 282 kts 218°
2026-04-26 15:41 50.72832 4.33166 10304 ft 275 kts 218°
2026-04-26 15:41 50.71301 4.31378 10025 ft 274 kts 214°
2026-04-26 15:41 50.69533 4.30321 9730 ft 274 kts 186°
2026-04-26 15:42 50.67657 4.30618 9466 ft 273 kts 162°
2026-04-26 15:42 50.65939 4.31878 9187 ft 272 kts 153°
2026-04-26 15:42 50.64277 4.33297 8888 ft 271 kts 152°
2026-04-26 15:42 50.62623 4.34726 8600 ft 271 kts 152°
2026-04-26 15:43 50.60974 4.36141 8321 ft 269 kts 152°
2026-04-26 15:43 50.59328 4.37541 8050 ft 268 kts 152°
2026-04-26 15:43 50.56050 4.40300 7510 ft 266 kts 152°
2026-04-26 15:44 50.54418 4.41666 7233 ft 265 kts 152°
2026-04-26 15:44 50.51057 4.43892 6681 ft 264 kts 178°
2026-04-26 15:44 50.49285 4.43330 6411 ft 261 kts 207°
2026-04-26 15:45 50.47250 4.38948 5877 ft 255 kts 261°
2026-04-26 15:45 50.47208 4.36192 5626 ft 252 kts 274°
2026-04-26 15:46 50.47508 4.30794 5306 ft 242 kts 276°
2026-04-26 15:46 50.47644 4.28199 5186 ft 235 kts 271°
2026-04-26 15:46 50.47285 4.25758 5074 ft 228 kts 245°
2026-04-26 15:46 50.46831 4.24256 5017 ft 224 kts 245°
2026-04-26 15:47 50.45952 4.21290 4704 ft 232 kts 244°
2026-04-26 15:47 50.43382 4.18640 4095 ft 234 kts 176°
2026-04-26 15:47 50.41830 4.19302 3865 ft 231 kts 156°
2026-04-26 15:48 50.40327 4.20174 3608 ft 232 kts 165°
2026-04-26 15:48 50.38871 4.21124 3439 ft 223 kts 135°
2026-04-26 15:48 50.38149 4.23128 3298 ft 211 kts 93°
2026-04-26 15:48 50.38486 4.25195 3257 ft 191 kts 50°
2026-04-26 15:49 50.39532 4.26391 3068 ft 184 kts 32°
2026-04-26 15:49 50.40492 4.27688 2920 ft 176 kts 45°
2026-04-26 15:49 50.41205 4.29207 2706 ft 170 kts 58°
2026-04-26 15:49 50.41767 4.30843 2475 ft 170 kts 62°
2026-04-26 15:50 50.42278 4.32514 2243 ft 170 kts 63°
2026-04-26 15:50 50.42770 4.34188 2027 ft 167 kts 64°
2026-04-26 15:50 50.43235 4.35789 1829 ft 154 kts 64°
2026-04-26 15:50 50.43658 4.37254 1636 ft 136 kts 63°
2026-04-26 15:51 50.44048 4.38595 1436 ft 135 kts 64°
2026-04-26 15:51 50.44439 4.39945 1246 ft 138 kts 63°
2026-04-26 15:51 50.44844 4.41327 1072 ft 141 kts 64°
2026-04-26 15:51 50.45255 4.42758 852 ft 143 kts 64°
2026-04-26 15:52 50.45652 4.44135 657 ft 133 kts 63°
2026-04-26 15:52 50.46004 4.45352 619 ft 109 kts 64°
2026-04-26 15:52 50.46256 4.46213 623 ft 65 kts 65°
2026-04-26 15:52 50.46353 4.46545 618 ft 36 kts 65°
2026-04-26 15:53 50.46484 4.46884 623 ft 22 kts 13°
2026-04-26 15:53 50.46556 4.46857 617 ft 4 kts 335°
2026-04-26 15:53 50.46571 4.46847 615 ft 0 kts 338°
2026-04-26 15:53 50.46572 4.46846 616 ft 2 kts 338°
2026-04-26 15:54 50.46616 4.46818 621 ft 10 kts 337°
2026-04-26 15:54 50.46680 4.46787 618 ft 11 kts
2026-04-26 15:54 50.46732 4.46894 620 ft 15 kts 66°
2026-04-26 15:54 50.46778 4.47047 617 ft 14 kts 65°
2026-04-26 15:55 50.46823 4.47063 618 ft 7 kts 336°
2026-04-26 15:55 50.46850 4.47044 619 ft 2 kts 335°
2026-04-26 15:55 50.46855 4.47041 616 ft 0 kts 336°